User: anonymous   Login
Location: Newark
(31.0436°N, 112.2008°E)
Time: 00:39:51
(UTC+00:00)
Language:

LightSail 2 - Orbit

View from above orbital plane
View from above orbital plane
View from above satellite
View from above satellite

Ground track
Ground track

The orbit data is extracted from the following two-line orbital elements,

1 44420U 19036AC  20058.08975170 +.00005192 +00000-0 +11427-2 0  9999
2 44420 024.0108 090.9397 0018301 019.8913 340.2278 14.54570471034081
Epoch (UTC): 27 February 2020 02:09:14
Eccentricity: 0.0018301
inclination: 24.0108°
perigee height: 698 km
apogee height: 724 km
right ascension of ascending node: 90.9397°
argument of perigee: 19.8913°
revolutions per day: 14.54570471
mean anomaly at epoch: 340.2278°
orbit number at epoch: 3408

The dashed part of the orbit path shows where the satellite is in the earth's shadow,  

DLR